VCP3DO LIPQ-LEIB

Flight info

Callsign VCP3DO
Flight time N/A
Altitude 37000
Route RCH DCT AKADO DCT OGPUD DCT OLNUK DCT TALEP DCT BALEN UT250 RIXOT
Aircraft B742/H-SDFHIRWXY/L

Departure

Time 2026-04-20 17:10
Airport Trieste Airport (LIPQ)

Arrival

Time N/A
Airport Ibiza Airport (LEIB)
Time Latitude Longitude Altitude Speed Heading
2026-04-20 17:04 45.82266 13.48378 44 ft 0 kts 79°
2026-04-20 17:06 45.82267 13.48386 44 ft 2 kts 79°
2026-04-20 17:06 45.82274 13.48440 44 ft 8 kts 79°
2026-04-20 17:07 45.82286 13.48527 44 ft 8 kts 71°
2026-04-20 17:07 45.82338 13.48574 44 ft 11 kts 358°
2026-04-20 17:07 45.82427 13.48573 45 ft 14 kts 359°
2026-04-20 17:07 45.82540 13.48573 45 ft 17 kts
2026-04-20 17:08 45.82657 13.48573 45 ft 16 kts
2026-04-20 17:08 45.82757 13.48570 46 ft 9 kts 331°
2026-04-20 17:08 45.82778 13.48487 46 ft 8 kts 270°
2026-04-20 17:08 45.82778 13.48448 46 ft 0 kts 269°
2026-04-20 17:09 45.82779 13.48342 46 ft 39 kts 270°
2026-04-20 17:09 45.82782 13.47565 48 ft 114 kts 270°
2026-04-20 17:09 45.82791 13.46096 53 ft 176 kts 270°
2026-04-20 17:09 45.82809 13.44229 564 ft 194 kts 271°
2026-04-20 17:10 45.82888 13.42271 1407 ft 200 kts 274°
2026-04-20 17:10 45.83012 13.40258 2214 ft 208 kts 274°
2026-04-20 17:10 45.82758 13.38220 2838 ft 222 kts 240°
2026-04-20 17:10 45.81869 13.36286 3351 ft 247 kts 230°
2026-04-20 17:11 45.80702 13.34265 4049 ft 271 kts 229°
2026-04-20 17:11 45.79463 13.32113 4949 ft 290 kts 230°
2026-04-20 17:11 45.78172 13.29822 5973 ft 306 kts 232°
2026-04-20 17:11 45.76813 13.27383 7124 ft 318 kts 232°
2026-04-20 17:12 45.75419 13.24869 8380 ft 328 kts 233°
2026-04-20 17:12 45.73999 13.22309 9664 ft 328 kts 233°
2026-04-20 17:12 45.72599 13.19787 10666 ft 324 kts 233°
2026-04-20 17:12 45.71186 13.17246 11395 ft 329 kts 234°
2026-04-20 17:13 45.69741 13.14646 12132 ft 332 kts 234°
2026-04-20 17:13 45.68291 13.12045 12885 ft 335 kts 234°
2026-04-20 17:13 45.66845 13.09453 13589 ft 338 kts 234°
2026-04-20 17:13 45.65354 13.06783 14273 ft 342 kts 235°
2026-04-20 17:14 45.63878 13.04140 14987 ft 343 kts 235°
2026-04-20 17:14 45.62381 13.01463 15689 ft 345 kts 235°
2026-04-20 17:14 45.60853 12.98733 16395 ft 346 kts 236°
2026-04-20 17:14 45.59353 12.96057 17019 ft 349 kts 236°
2026-04-20 17:15 45.57818 12.93318 17688 ft 351 kts 236°
2026-04-20 17:15 45.56292 12.90602 18333 ft 353 kts 236°
2026-04-20 17:15 45.54737 12.87835 18960 ft 356 kts 236°
2026-04-20 17:15 45.53178 12.85064 19614 ft 358 kts 236°
2026-04-20 17:16 45.51614 12.82284 20233 ft 360 kts 237°
2026-04-20 17:16 45.50026 12.79468 20850 ft 362 kts 237°
2026-04-20 17:16 45.48424 12.76627 21412 ft 366 kts 237°
2026-04-20 17:16 45.46832 12.73809 22030 ft 367 kts 237°
2026-04-20 17:17 45.45199 12.70919 22563 ft 371 kts 237°
2026-04-20 17:17 45.43563 12.68027 23082 ft 374 kts 237°
2026-04-20 17:17 45.41935 12.65152 23627 ft 377 kts 237°
2026-04-20 17:17 45.40271 12.62219 24152 ft 379 kts 237°
2026-04-20 17:18 45.38600 12.59277 24674 ft 382 kts 237°
2026-04-20 17:18 45.36931 12.56339 25193 ft 385 kts 237°
2026-04-20 17:18 45.35226 12.53346 25723 ft 387 kts 237°
2026-04-20 17:18 45.33536 12.50359 26148 ft 389 kts 239°
2026-04-20 17:19 45.31941 12.47200 26607 ft 390 kts 242°
2026-04-20 17:19 45.30429 12.44002 27104 ft 391 kts 243°
2026-04-20 17:19 45.28919 12.40763 27558 ft 394 kts 243°
2026-04-20 17:19 45.27416 12.37549 28017 ft 396 kts 243°
2026-04-20 17:20 45.25861 12.34239 28429 ft 399 kts 242°
2026-04-20 17:20 45.24320 12.30975 28856 ft 402 kts 242°
2026-04-20 17:20 45.22742 12.27644 29289 ft 405 kts 242°
2026-04-20 17:20 45.21178 12.24352 29879 ft 403 kts 242°
2026-04-20 17:21 45.19613 12.21070 30566 ft 399 kts 242°
2026-04-20 17:21 45.18052 12.17798 31094 ft 399 kts 242°
2026-04-20 17:21 45.16502 12.14546 31614 ft 397 kts 242°
2026-04-20 17:21 45.14956 12.11308 32149 ft 395 kts 242°
2026-04-20 17:22 45.13416 12.08089 32698 ft 393 kts 243°
2026-04-20 17:22 45.11872 12.04863 33214 ft 391 kts 243°
2026-04-20 17:22 45.10352 12.01690 33658 ft 390 kts 243°
2026-04-20 17:22 45.08831 11.98517 34091 ft 389 kts 243°
2026-04-20 17:23 45.07303 11.95333 34524 ft 388 kts 243°
2026-04-20 17:23 45.05795 11.92198 34951 ft 386 kts 243°
2026-04-20 17:23 45.04291 11.89068 35169 ft 387 kts 243°
2026-04-20 17:23 45.02764 11.85893 35431 ft 387 kts 243°
2026-04-20 17:24 45.01244 11.82741 35709 ft 387 kts 243°
2026-04-20 17:24 44.99721 11.79586 35913 ft 388 kts 243°
2026-04-20 17:24 44.98213 11.76463 36080 ft 390 kts 243°
2026-04-20 17:24 44.96670 11.73275 36335 ft 388 kts 243°
2026-04-20 17:25 44.95154 11.70144 36468 ft 391 kts 243°
2026-04-20 17:25 44.93608 11.66953 36654 ft 391 kts 243°